CZ-4B DEB

Satellite information

Favourite Embed

Satellite Type and Status

DEBRISIN ORBIT

Key statistics

Satellite CZ-4B DEB at a glance.

Uptime

6250

Days in orbit

Revolutions

≈ 14.4

Per day

Orbit

SSO

Sun Synchronous Orbit

Inclination

98.9

Latest

Satellite identification and parameters

Extended collection of information and parameters for CZ-4B DEB.

Object identification

Identified? True

Debris? True

Object name: CZ-4B DEB

International designator: 2008-026G

Object number (NORAD): 44592

Object ID (CCSDS): 44592

Country: PEOPLES REPUBLIC OF CHINA (PRC)

Current information (Y/N): Y

RCS size: SMALL

Orbital parameters

Period: 99.81 minutes

Inclination: 98.9029 deg

SMA: 7127.602 km

Apoapsis: 798.284 km

Periapsis: 700.65 km

RAAN: 239.5943 deg

Eccentricy: 0.006849

Argument of periapsis: 220.4183 deg

Mean anomaly: 139.1905 deg

Mean motion: 14.42738446 rev/day

Mean motion (dot): 0.000001 rev/day2

B* drag term: 0.000043724 1/REarth

Two-line elements (TLE)

Creation date: July 6, 2025, 6:05 p.m.

Reference frame: TEME

Reference center: EARTH

Epoch: July 6, 2025, 9:09 a.m. UTC

TLE line 0: 0 CZ-4B DEB

TLE line 1: 1 44592U 08026G 25187.38177333 .00000100 00000-0 43724-4 0 9993

TLE line 2: 2 44592 98.9029 239.5943 0068490 220.4183 139.1905 14.42738446611576

Live tracking on map

Real-time ground track for satellite CZ-4B DEB.

In-orbit conjunctions

A list of the most updated potential collisions computed for object CZ-4B DEB.

Target Orbit TCA Probability of collision Miss distance Type
PICOSAT 6 SSO 2025-01-16 07:19:21 0.0003546389 672.0 (m) PAYLOAD
NOAA 16 DEB SSO 2024-11-11 12:36:52 0.0002470244 363.0 (m) DEBRIS
PEGASUS DEB LEO 2024-06-11 05:52:19 0.0001726366 66.0 (m) DEBRIS

Associated space launch

Chinese 2nd generation polar orbiting meteorological satellite

CZ-4B DEB was lifted into orbit during the mission ‘Long March 4C | Feng Yun 3A’, on board a Long March 4C space rocket.

The launch took place on May 27, 2008, 3:02 a.m. from Launch Complex 7.

For more information about the launch, click the button.

Launch to space Long March 4C | Feng Yun 3A
Long March 4C | Feng Yun 3A

Agency: N/A

Status: Launch Successful

Launch date: May 27, 2008, 3:02 a.m. UTC

Rocket: Long March 4C

Launch pad: Launch Complex 7

Location: Taiyuan Satellite Launch Center, People's Republic of China

...

Latest news about this satellite

There are no fresh news available about this satellite. Check back as we update our databases every day.


Newsletter sign-up

Weekly statistics, charts and insights to help you stay on top of the space industry.